Location: Houston
(29.7631°N, 95.3631°W)
Time: 12:13:33
(UTC-05:00)

UNISAT 6 - Pass Details

Date: 22 September 2021
Orbit: 606 x 687 km, 97.7° (Epoch: 27 October)

Event Time Altitude Azimuth Distance (km) Brightness Sun altitude
Rises 20:12:14 0° 13° (NNE) 3,058 ? -12.7°
Reaches altitude 10° 20:14:30 10° 14° (NNE) 2,137 ? -13.2°
Maximum altitude 20:19:11 80° 101° (E) 697 ? -14.2°
Drops below altitude 10° 20:23:48 10° 189° (S) 2,102 ? -15.2°
Sets 20:26:01 0° 190° (S) 3,003 ? -15.6°
